When you browse on this site, cookies collect data to enhance your experience and personalize the content and advertising you see.
Visit our Privacy Policy to learn more. By continuing to use the site, you agree to this use of cookies and data.
  • In Hungary
  • List of Countries
  • For 7 days
  • Water Temperature
  • Satellite Maps
  • Weather Map
  • News
  • Weather Widgets
  • user-avatar
    Login

    Hourly Weather Albano Laziale

    Today, 13 December, Thursday

    Time Temperature Precipitation Wind Pressure Humidity
    00:00 +6°C° 0.3 mm 4 mps 740 mmHg 58%
    01:00 +7°C° 0 mm 3 mps 740 mmHg 61%
    02:00 +7°C° 0.5 mm 3 mps 740 mmHg 64%
    03:00 +6°C° 0.5 mm 4 mps 739 mmHg 68%
    04:00 +6°C° 0.5 mm 4 mps 739 mmHg 72%
    05:00 +6°C° 0.5 mm 4 mps 738 mmHg 74%
    06:00 +7°C° 0.5 mm 3 mps 738 mmHg 76%
    07:00 +5°C° 0.5 mm 3 mps 738 mmHg 78%
    08:00 +7°C° 0.7 mm 3 mps 738 mmHg 79%
    09:00 +7°C° 0.7 mm 3 mps 737 mmHg 79%
    10:00 +7°C° 0.7 mm 2 mps 737 mmHg 80%
    11:00 +7°C° 0.4 mm 2 mps 737 mmHg 81%
    12:00 +7°C° 0.4 mm 2 mps 737 mmHg 82%
    13:00 +8°C° 0 mm 3 mps 737 mmHg 81%
    14:00 +8°C° 0.2 mm 3 mps 737 mmHg 83%
    15:00 +8°C° 0.2 mm 2 mps 737 mmHg 84%
    16:00 +8°C° 0.2 mm 2 mps 736 mmHg 85%
    17:00 +8°C° 0.4 mm 2 mps 736 mmHg 86%
    18:00 +8°C° 0.4 mm 2 mps 736 mmHg 87%
    19:00 +8°C° 0.4 mm 3 mps 736 mmHg 89%
    20:00 +8°C° 0.9 mm 3 mps 736 mmHg 90%
    21:00 +8°C° 0.9 mm 3 mps 736 mmHg 90%
    22:00 +7°C° 0.9 mm 4 mps 736 mmHg 91%
    23:00 +7°C° 1.4 mm 4 mps 736 mmHg 91%

    Tomorrow, 14 December, Friday

    Time Temperature Precipitation Wind Pressure Humidity
    00:00 +7°C° 1.4 mm 4 mps 736 mmHg 91%
    01:00 +8°C° 1.4 mm 4 mps 736 mmHg 92%
    02:00 +9°C° 1 mm 3 mps 735 mmHg 91%
    03:00 +9°C° 1 mm 3 mps 735 mmHg 91%
    04:00 +9°C° 1 mm 3 mps 735 mmHg 91%
    05:00 +9°C° 1.1 mm 3 mps 735 mmHg 91%
    06:00 +10°C° 1.1 mm 3 mps 735 mmHg 91%
    07:00 +10°C° 1.1 mm 3 mps 735 mmHg 91%
    08:00 +10°C° 1.4 mm 3 mps 735 mmHg 91%
    09:00 +10°C° 1.4 mm 3 mps 735 mmHg 91%
    10:00 +10°C° 1.4 mm 3 mps 735 mmHg 90%
    11:00 +11°C° 0.8 mm 3 mps 735 mmHg 89%
    12:00 +12°C° 0.8 mm 2 mps 735 mmHg 88%
    13:00 +12°C° 0.8 mm 2 mps 735 mmHg 86%
    14:00 +12°C° 0.3 mm 2 mps 736 mmHg 87%
    15:00 +12°C° 0.3 mm 2 mps 736 mmHg 87%
    16:00 +12°C° 0.3 mm 2 mps 736 mmHg 88%
    17:00 +10°C° 0.1 mm 2 mps 736 mmHg 88%
    18:00 +10°C° 0.1 mm 3 mps 737 mmHg 88%
    19:00 +9°C° 0.1 mm 3 mps 737 mmHg 88%
    20:00 +9°C° 0.2 mm 3 mps 737 mmHg 88%
    21:00 +9°C° 0.2 mm 3 mps 737 mmHg 88%
    22:00 +9°C° 0.2 mm 3 mps 738 mmHg 87%
    23:00 +9°C° 0.3 mm 3 mps 738 mmHg 87%

    Day after tomorrow, 15 December, Saturday

    Time Temperature Precipitation Wind Pressure Humidity
    00:00 +8°C° 0.3 mm 3 mps 738 mmHg 86%
    01:00 +8°C° 0.3 mm 3 mps 738 mmHg 85%
    02:00 +8°C° 0.3 mm 3 mps 738 mmHg 85%
    03:00 +8°C° 0.3 mm 3 mps 738 mmHg 85%
    04:00 +8°C° 0.3 mm 3 mps 738 mmHg 85%
    05:00 +7°C° 0.5 mm 4 mps 738 mmHg 85%
    06:00 +6°C° 0.5 mm 4 mps 738 mmHg 85%
    07:00 +6°C° 0.5 mm 4 mps 738 mmHg 85%
    08:00 +6°C° 0.2 mm 4 mps 739 mmHg 82%
    09:00 +7°C° 0.2 mm 4 mps 739 mmHg 79%
    10:00 +7°C° 0.2 mm 4 mps 740 mmHg 77%
    11:00 +7°C° 0 mm 4 mps 740 mmHg 74%
    12:00 +8°C° 0 mm 4 mps 740 mmHg 72%
    13:00 +8°C° 0 mm 4 mps 740 mmHg 69%
    14:00 +8°C° 0 mm 4 mps 740 mmHg 70%
    15:00 +7°C° 0 mm 4 mps 740 mmHg 70%
    16:00 +7°C° 0 mm 4 mps 740 mmHg 71%
    17:00 +6°C° 0 mm 4 mps 741 mmHg 71%
    18:00 +5°C° 0 mm 4 mps 741 mmHg 72%
    19:00 +3°C° 0 mm 5 mps 742 mmHg 73%
    20:00 +4°C° 0 mm 4 mps 742 mmHg 72%
    21:00 +3°C° 0 mm 4 mps 742 mmHg 72%
    22:00 +3°C° 0 mm 4 mps 742 mmHg 71%
    23:00 +1°C° 0 mm 4 mps 742 mmHg 70%

    16 December, Sunday

    Time Temperature Precipitation Wind Pressure Humidity
    00:00 +1°C° 0 mm 4 mps 742 mmHg 69%
    01:00 +2°C° 0 mm 3 mps 743 mmHg 68%
    02:00 +2°C° 0 mm 3 mps 743 mmHg 67%
    03:00 +1°C° 0 mm 3 mps 743 mmHg 66%
    04:00 +1°C° 0 mm 3 mps 743 mmHg 65%
    05:00 +1°C° 0 mm 3 mps 743 mmHg 64%
    06:00 +1°C° 0 mm 3 mps 743 mmHg 63%
    07:00 +2°C° 0 mm 2 mps 743 mmHg 62%
    08:00 +3°C° 0 mm 2 mps 743 mmHg 58%
    09:00 +5°C° 0 mm 2 mps 743 mmHg 54%
    10:00 +6°C° 0 mm 2 mps 744 mmHg 51%
    11:00 +8°C° 0 mm 1 mps 743 mmHg 48%
    12:00 +9°C° 0 mm 1 mps 743 mmHg 46%
    13:00 +10°C° 0 mm 1 mps 743 mmHg 43%
    14:00 +9°C° 0 mm 1 mps 743 mmHg 46%
    15:00 +9°C° 0 mm 1 mps 743 mmHg 49%
    16:00 +7°C° 0 mm 0 mps 743 mmHg 52%
    17:00 +8°C° 0 mm 1 mps 743 mmHg 52%
    18:00 +7°C° 0 mm 1 mps 743 mmHg 53%
    19:00 +6°C° 0 mm 1 mps 743 mmHg 54%
    20:00 +7°C° 0 mm 1 mps 743 mmHg 55%
    21:00 +6°C° 0 mm 2 mps 743 mmHg 57%
    22:00 +6°C° 0 mm 2 mps 743 mmHg 58%
    23:00 +5°C° 0.1 mm 3 mps 743 mmHg 61%

    17 December, Monday

    Time Temperature Precipitation Wind Pressure Humidity
    00:00 +7°C° 0.1 mm 3 mps 742 mmHg 65%
    01:00 +6°C° 0.1 mm 4 mps 742 mmHg 68%
    02:00 +6°C° 0.2 mm 4 mps 742 mmHg 72%
    03:00 +6°C° 0.2 mm 4 mps 742 mmHg 75%
    04:00 +6°C° 0.2 mm 5 mps 741 mmHg 78%
    05:00 +6°C° 0.3 mm 4 mps 741 mmHg 80%
    06:00 +6°C° 0.3 mm 4 mps 742 mmHg 83%
    07:00 +6°C° 0.3 mm 4 mps 742 mmHg 85%
    08:00 +8°C° 0.1 mm 3 mps 742 mmHg 85%
    09:00 +8°C° 0.1 mm 3 mps 742 mmHg 84%
    10:00 +9°C° 0.1 mm 3 mps 743 mmHg 84%
    11:00 +9°C° 0 mm 2 mps 743 mmHg 83%
    12:00 +10°C° 0 mm 2 mps 742 mmHg 83%
    13:00 +10°C° 0 mm 2 mps 742 mmHg 82%
    14:00 +10°C° 0.1 mm 2 mps 742 mmHg 83%
    15:00 +10°C° 0.1 mm 2 mps 743 mmHg 84%
    16:00 +11°C° 0.1 mm 1 mps 743 mmHg 85%
    17:00 +9°C° 0.2 mm 2 mps 743 mmHg 86%
    18:00 +9°C° 0.2 mm 2 mps 743 mmHg 87%
    19:00 +8°C° 0.2 mm 2 mps 743 mmHg 88%
    20:00 +8°C° 0.1 mm 2 mps 744 mmHg 88%
    21:00 +7°C° 0.1 mm 3 mps 744 mmHg 87%
    22:00 +7°C° 0.1 mm 3 mps 744 mmHg 87%
    23:00 +7°C° 0 mm 3 mps 745 mmHg 86%

    18 December, Tuesday

    Time Temperature Precipitation Wind Pressure Humidity
    00:00 +7°C° 0 mm 3 mps 745 mmHg 85%
    01:00 +7°C° 0 mm 3 mps 745 mmHg 84%
    02:00 +5°C° 0 mm 3 mps 745 mmHg 83%
    03:00 +5°C° 0 mm 4 mps 745 mmHg 82%
    04:00 +5°C° 0 mm 4 mps 746 mmHg 81%
    05:00 +5°C° 0 mm 4 mps 746 mmHg 80%
    06:00 +4°C° 0 mm 3 mps 747 mmHg 79%
    07:00 +4°C° 0 mm 3 mps 747 mmHg 79%
    08:00 +5°C° 0 mm 3 mps 748 mmHg 75%
    09:00 +7°C° 0 mm 3 mps 748 mmHg 72%
    10:00 +8°C° 0 mm 3 mps 749 mmHg 68%
    11:00 +9°C° 0 mm 3 mps 749 mmHg 63%
    12:00 +10°C° 0 mm 3 mps 749 mmHg 59%
    13:00 +10°C° 0 mm 3 mps 749 mmHg 54%
    14:00 +10°C° 0 mm 2 mps 749 mmHg 57%
    15:00 +9°C° 0 mm 2 mps 749 mmHg 59%
    16:00 +9°C° 0 mm 2 mps 749 mmHg 61%
    17:00 +8°C° 0 mm 2 mps 749 mmHg 62%
    18:00 +7°C° 0 mm 2 mps 749 mmHg 63%
    19:00 +7°C° 0 mm 1 mps 749 mmHg 64%
    20:00 +6°C° 0 mm 1 mps 749 mmHg 62%
    21:00 +6°C° 0 mm 1 mps 749 mmHg 60%
    22:00 +6°C° 0 mm 1 mps 749 mmHg 58%
    23:00 +6°C° 0 mm 1 mps 749 mmHg 56%
    Show more